www.pogodaiklimat.ru

Погода и климат >> Архив погоды >> Мексика >> Кампече


ПОГОДА в Кампече

  • Прогноз погоды в Кампече
  • Монитор погоды в Кампече

АРХИВ ПОГОДЫ в Кампече

Время (UTC), дата Ветер
(напр.,м/с)
 
Видим.   Явления Облачность Т
(С)
Тd
(С)
f
(%)
Тe
(С)
Тes
(С)
Комфортность P
(гПа)
Po
(гПа)
Тmin
(С)
Tmax
(С)
R
(мм)
R24
(мм)
S
(см)
12 18.05 штиль 0 10 км 6/0
[Ci]
+24.3 +22.6 90 +32 +32 очень
душно
1010.2 1009.7 +23.6 +38.9
15 18.05 ЮВ 2 10 км 5/3 600 м
[Cu hum Ci]
+33.0 +27.3 72 +52 +60 опасность
перегрева
1011.0 1010.5
18 18.05 В 2 10 км 3/3 900 м
[Cu med, cong]
+37.5 +28.4 60 +59 +75 опасность
перегрева
1009.4 1008.9 +23.6 +38.2
21 18.05 В 2 10 км 5/5 1200 м
[Cu med, cong]
+38.6 +26.9 52 +56 +62 опасность
перегрева
1007.1 1006.5
12 19.05 ЮВ 1 10 км ясно +26.0 +24.1 89 +36 +36 очень
душно
1009.9 1009.3 +25.6 +40.3
15 19.05 ЮВ 2 10 км ясно +33.0 +28.0 75 +54 +66 опасность
перегрева
1010.4 1009.8
18 19.05 В 3 10 км 1/1 900 м
[Cu hum]
+37.8 +26.3 52 +54 +70 опасность
перегрева
1009.4 1008.8 +25.6 +38.4
21 19.05 СЗ 4 9000 м мгла 4/4 900 м
[Cu hum]
+34.8 +27.2 65 +53 +58 опасность
перегрева
1007.2 1006.7
00 20.05 С 5 10 км 3/3 900 м
[Cu med, cong]
+32.3 +27.1 74 +50 +51 опасность
перегрева
1007.2 1006.7 +25.6 +41.3
03 20.05 В 2 6000 м зарница 3/3 750 м
[Cb calv]
+32.2 +24.4 63 +44 +44 опасность
перегрева
1010.3 1009.8
12 20.05 штиль 0 10 км ясно +25.8 +23.3 86 +35 +35 очень
душно
1011.7 1011.2 +25.6 +41.3
15 20.05 В 2 10 км ясно +31.5 +25.5 71 +46 +58 опасность
перегрева
1013.1 1012.5
18 20.05 ЮВ 3 10 км ясно +37.2 +25.0 50 +51 +69 опасность
перегрева
1011.4 1010.8 +25.6 +37.3
21 20.05 С 11 10 км 4/4 1410 м
[Cu med, cong]
+39.7 +35 +35 очень
жарко
1008.2 1007.6
00 21.05 штиль 0 50 км ?/? +36.8 +19.9 37 +42 +42 опасность
перегрева
1007.6 1007.1 +25.6 +40.5
03 21.05 В 2 6000 м ясно +32.6 +22.4 55 +42 +42 опасность
перегрева
1009.7 1009.1
06 21.05 В 3 6000 м ясно +28.6 +22.8 71 +38 +38 очень
душно
1010.6 1010.1 +25.6 +40.5
09 21.05 ЮВ 1 6000 м ясно +25.8 +22.7 83 +34 +34 очень
душно
1010.3 1009.7
12 21.05 В 1 10 км ясно +24.6 +22.6 89 +32 +33 очень
душно
1009.8 1009.3 +24.5 +40.5
15 21.05 ЮВ 2 10 км ясно +32.2 +23.8 61 +44 +56 опасность
перегрева
1010.0 1009.5
18 21.05 В 2 10 км ясно +37.8 +22.5 42 +47 +69 опасность
перегрева
1008.2 1007.6 +24.5 +38.2
21 21.05 ЮВ 2 10 км ясно +40.6 +21.7 34 +48 +60 опасность
перегрева
1005.6 1005.0
00 22.05 В 1 10 км ясно +37.7 +23.9 45 +49 +49 опасность
перегрева
1005.4 1004.9 +24.5 +41.2
03 22.05 В 3 6000 м ясно +32.3 +22.5 56 +42 +42 опасность
перегрева
1007.7 1007.2
06 22.05 В 3 6000 м ясно +28.0 +24.8 83 +40 +40 очень
душно
1010.0 1009.5 +25.6 +40.5
09 22.05 ЮВ 1 6000 м ясно +27.0 +24.0 84 +37 +37 очень
душно
1008.9 1008.3
12 22.05 ЮВ 2 10 км ясно +26.2 +23.7 86 +36 +36 очень
душно
1009.5 1008.9 +25.6 +41.2
15 22.05 ЮВ 3 10 км ясно +33.0 +25.3 64 +47 +57 опасность
перегрева
1010.3 1009.7
18 22.05 В 2 10 км 1/1 1000 м
[Cu hum]
+38.2 +23.7 44 +49 +69 опасность
перегрева
1009.8 1009.2 +25.6 +38.6
21 22.05 В 3 10 км 1/1 1000 м
[Cu hum]
+39.4 +22.9 39 +49 +58 опасность
перегрева
1007.6 1007.0
00 23.05 В 4 10 км 3/3 1300 м
[Cu hum]
+36.4 +24.3 50 +48 +49 опасность
перегрева
1007.8 1007.2 +25.6 +40.8
03 23.05 В 4 6000 м ясно +31.4 +24.4 66 +44 +44 опасность
перегрева
1011.0 1010.5
06 23.05 В 3 6000 м ясно +28.8 +23.9 75 +40 +40 очень
душно
1012.7 1012.1 +25.6 +40.8
09 23.05 В 2 6000 м ясно +27.1 +24.0 83 +37 +37 очень
душно
1012.2 1011.6
12 23.05 ЮВ 2 10 км ясно +26.2 +24.3 89 +36 +37 очень
душно
1013.0 1012.5 +26.0 +40.8
15 23.05 В 3 10 км 1/1 1000 м
[Cu hum]
+33.0 +24.7 62 +46 +55 опасность
перегрева
1013.9 1013.3
18 23.05 В 2 10 км 3/3 1000 м
[Cu hum]
+36.4 +26.1 56 +52 +68 опасность
перегрева
1012.7 1012.1 +26.0 +37.4
21 23.05 В 2 10 км 3/3 1000 м
[Cu med, cong]
+39.2 +25.2 45 +52 +61 опасность
перегрева
1009.9 1009.4
00 24.05 С 3 10 км {морось} 5/5 900 м
[Cu med, cong]
+32.3 +27.3 75 +51 +51 опасность
перегрева
1009.5 1009.0 +26.0 +40.3 0.0
03 24.05 В 2 6000 м ясно +32.4 +24.9 65 +46 +46 опасность
перегрева
1012.2 1011.6
06 24.05 В 2 6000 м ясно +29.2 +24.3 75 +41 +41 опасность
перегрева
1012.7 1012.1 +26.0 +40.3
09 24.05 В 1 6000 м ясно +26.5 +23.7 85 +36 +36 очень
душно
1013.3 1012.7
12 24.05 ЮВ 2 10 км ясно +25.6 +23.7 89 +35 +35 очень
душно
1014.0 1013.4 +25.6 +40.3
15 24.05 В 4 10 км 5/5 300 м
[Cu med, cong]
+31.7 +28.7 84 +54 +58 опасность
перегрева
1014.9 1014.4
18 24.05 В 3 10 км 5/5 1080 м
[Cu med, cong]
+37.0 +26.2 54 +53 +62 опасность
перегрева
1013.6 1013.0
00 25.05 С 2 10 км {морось} 3/3 600 м
[Sc diur, vesp]
+31.0 +26.5 77 +47 +48 опасность
перегрева
1011.0 1010.5 +25.6 +38.9 0.4
03 25.05 В 1 6000 м 1/1 600 м
[Sc diur, vesp]
+30.4 +25.3 74 +44 +44 опасность
перегрева
1013.0 1012.4
06 25.05 В 2 6000 м ясно +28.3 +24.2 78 +39 +39 очень
душно
1013.8 1013.2 +25.6 +38.9

 

Местоположение метеостанции Кампече (Мексика): широта 19.85 долгота -90.55 высота над уровнем моря 5 м.

В архиве по умолчанию представлена погода в Кампече за последнюю неделю. Архивные данные за месяц целиком и за предыдущие месяцы, начиная с января 2011 года, Вы можете получить, выбрав интересующий диапазон дат из раскрывающегося списка и нажав кнопку "Ввод!".


*Определитесь, кто Вы:
робот инопланетянин человек

Внимание! Время в таблицах - всемирное. Для получения местного времени необходимо прибавить поправку, которая равна -6 ч.

Смотрите также архив погоды в соседних городах и на ближайших метеорологических станциях:

Погода в Мериде 2 (Мексика) (156 км)
Погода в Мериде (Мексика) (157 км)
Погода в Прогресо (Мексика) (187 км)
Погода в Вальядолиде (Мексика) (262 км)
Погода в Фелипе-Каррильо-Пуэрто (Мексика) (278 км)
Погода в Четумале (Мексика) (281 км)
Погода в Вильяэрмосе (Мексика) (326 км)
Погода во Флоресе (Гватемала) (333 км)
Погода в Белизе (Белиз) (350 км)
Погода в Сан-Кристобаль-де-лас-Касасе (Мексика) (409 км)

Пояснения к столбцам:

Ветер - указаны скорость ветра в м/с - средняя за 10 мин, порывы в срок и между сроками (в фигурных скобках) и направление, откуда дует ветер: С - северный, СВ - северо-восточный, В - восточный, ЮВ - юго-восточный, Ю - южный, ЮЗ - юго-западный, З - западный, СЗ - северо-западный.
Видимость - горизонтальная дальность видимости в метрах или километрах. При видимости от 1 до 10 км при отсутствии осадков обычно наблюдается дымка, при ухудшении видимости до 1 км и менее - туман. В сухую погоду видимость может ухудшаться дымом, пылью или мглою.
Явления - указаны атмосферные явления, наблюдавшиеся в срок или в последний час перед сроком; фигурными скобками обозначены явления, наблюдавшиеся между сроками (за 1-3 часа до срока); квадратными скобками обозначены град или гололедные отложения с указанием их диаметра в мм.
Облачность - указаны через наклонную черту общая и нижняя облачность в баллах и высота нижней границы облаков в метрах; квадратными скобками обозначены формы облаков: Ci - перистые, Cs - перисто-слоистые, Cc - перисто-кучевые, Ac - высококучевые, As - высокослоистые, Sc - слоисто-кучевые, Ns - слоисто-дождевые, Cu - кучевые, Cb - кучево-дождевые. Подробнее классификацию облаков см. в Атласе облаков (PDF).
T - Температура воздуха - температура, измеренная на высоте 2 м над землей.
Td - Температура точки росы - температура, при понижении до которой содержащийся в воздухе водяной пар достигнет насыщения.
f - Относительная влажность воздуха - влажноcть воздуха, измеренная на высоте 2 м над землей.
Te - Эффективная температура - температура, которую ощущает одетый по сезону человек в тени. Характеристика душности погоды. При расчете учитывается влияние влажности воздуха и скорости ветра на теплоощущения человека.
Tes - Эффективная температура на солнце - температура, которую ощущает человек, с поправкой на солнечный нагрев. Характеристика знойности погоды. Зависит от высоты солнца над горизонтом, облачности и скорости ветра. Ночью, в пасмурную погоду, а также при ветре 12 м/с и более поправка равна нулю.
P - Атмосферное давление - приведенное к уровню моря атмосферное давление.
Po - Атмосферное давление - измеренное на уровне метеостанции атмосферное давление.
Tmin - Минимальная температура - минимум температуры воздуха на высоте 2 м над землей.
Tmax - Максимальная температура - максимум температуры воздуха на высоте 2 м над землей.
R - Количество осадков - Количество выпавших осадков за период времени, мм. При наведении курсора мыши на число - период времени, за который выпало указанное количество осадков.
R24 - Количество осадков - Количество выпавших осадков за 24 часа, мм.
S - Снежный покров - Высота снежного покрова, см. При наведении курсора мыши на число - состояние снежного покрова и степень покрытия местности в баллах.